Regional Weather Roundup
Issued by NWS Green Bay, WI

Home | Current Version | Previous Version | Text Only | Print | Product List | Glossary On
Versions: 1 2 3 4 5 6 7 8 9 10 11 12 13 14 15 16 17 18 19 20 21 22 23 24 25 26 27 28 29 30 31 32 33 34 35 36 37 38 39 40 41 42 43 44 45 46 47 48 49 50
000
ASUS43 KGRB 211300
RWRGRB

NORTH-CENTRAL AND NORTHEAST WISCONSIN REGIONAL WEATHER ROUNDUP
NATIONAL WEATHER SERVICE GREEN BAY WI
700 AM CST SUN JAN 21 2018

WIZ005-009-010>012-018-019-211400-
NORTH CENTRAL WISCONSIN

CITY           SKY/WX    TMP DP  RH WIND       PRES   REMARKS
IRONWOOD       FOG       24  23  96 CALM      29.97R VSB 1/2
MANITOWISH WTR NOT AVBL
ARBOR VITAE    NOT AVBL
EAGLE RIVER    FAIR      27  27 100 CALM      29.92S FOG
LAND O LAKES   NOT AVBL
RHINELANDER    CLOUDY    31  30  96 CALM      29.94R
PHILLIPS       CLOUDY    28  28 100 CALM      29.93R
ANTIGO         NOT AVBL
TOMAHAWK       NOT AVBL
MERRILL        CLOUDY    28  28 100 CALM      29.94S FOG
$$

WIZ013-073-211400-
NORTHEAST WISCONSIN

CITY           SKY/WX    TMP DP  RH WIND       PRES   REMARKS
IRON MOUNTAIN  CLOUDY    29  26  89 CALM      29.94R
MARINETTE      MOCLDY    31  29  92 CALM      29.97S
$$

WIZ017-030-035>037-045-211400-
CENTRAL WISCONSIN

CITY           SKY/WX    TMP DP  RH WIND       PRES   REMARKS
MEDFORD        NOT AVBL
WAUSAU         CLOUDY    30  29  96 NW5       29.92R
MOSINEE        MOCLDY    28  27  93 VRB3      29.94R FOG
MARSHFIELD     FAIR      24  23  96 S7        29.92R FOG
WISC RAPIDS    FAIR      21  18  88 CALM      29.95S FOG
STEVENS POINT  NOT AVBL
WAUPACA        NOT AVBL
SHAWANO        FAIR      29  28  93 CALM      29.95S FOG
CLINTONVILLE   NOT AVBL
WAUTOMA        FAIR      20  18  92 CALM      29.95F
$$

WIZ038-039-048-051-211400-
FOX VALLEY

CITY           SKY/WX    TMP DP  RH WIND       PRES   REMARKS
NWS GREEN BAY  FAIR      25  23  92 S5        29.96R FOG
APPLETON       MOCLDY    27  27 100 CALM      29.95R FOG
OSHKOSH        FOG       24  22  91 CALM      29.95S VSB 1/4
FOND DU LAC    FOG       24  21  88 CALM      29.96R VSB 1/4
$$

WIZ022-050-052-211400-
EAST CENTRAL WISCONSIN

CITY           SKY/WX    TMP DP  RH WIND       PRES   REMARKS
EPHRAIM        NOT AVBL
WASHINGTON ISL NOT AVBL
STURGEON BAY   MOCLDY    29  27  92 S5        29.97
MANITOWOC      FAIR      24  23  96 NW3       29.98S FOG
SHEBOYGAN      FAIR      22  22 100 SW3       29.96S FOG
$$

LMZ563-521-522-541>543-211400-
LAKESHORE

STATION/POSITION TIME  TEMP    WIND        PRES    VSBY  WAVE
                       AIR SEA DIR/SP/G                  HT/PER
                 (UTC) (F)     (DEG/KT/KT) (MB)    (MI)  (FT/S)
SHEBOYGAN LKSHOR 1200   32     250/  3/  4 1015.1F
KEWAUNEE LKSHORE 1230   26     300/  2/  2 1014.2R
NORTHPORT PIER   1240   35     180/  2/  5 1014.6R
MENOMINEE LKSHOR 1224   31     350/  5/  6 1014.1
$$




USA.gov is the U.S. government's official web portal to all federal, state and local government web resources and services.